Regional Weather Roundup
Issued by NWS

Home | Current Version | Previous Version | Graphics & Text | Print | Product List | Glossary On
Versions: 1 2 3 4 5 6 7 8 9 10 11 12 13 14 15 16 17 18 19 20 21 22 23 24 25 26 27 28 29 30 31 32 33 34 35 36 37 38 39 40 41 42 43 44 45 46 47 48 49 50
000
ASUS43 KFSD 010210
RWRSD

WEATHER ROUNDUP FOR SOUTH DAKOTA
NATIONAL WEATHER SERVICE SIOUX FALLS SD
900 PM CDT SAT APR 30 2016

NOTE: "FAIR" INDICATES FEW OR NO CLOUDS BELOW 12,000 FEET WITH NO
SIGNIFICANT WEATHER AND/OR OBSTRUCTIONS TO VISIBILITY.


SDZ001>005-009-010-012>017-010300-
NORTHWEST AND NORTH CENTRAL SOUTH DAKOTA

CITY           SKY/WX    TMP DP  RH WIND       PRES   REMARKS
BUFFALO          N/A     47  30  51 NE10      30.16R
FAITH            N/A     45  30  55 NE12      30.17R
MOBRIDGE       CLOUDY    52  29  41 NE13      30.15R
$$

SDZ012>016-024>037-041>051-057-063-072>074-010300-
SOUTHWEST AND SOUTH CENTRAL SOUTH DAKOTA

CITY           SKY/WX    TMP DP  RH WIND       PRES   REMARKS
RAPID CTY ARPT CLOUDY    44  31  60 NE12      30.16R
PIERRE         CLOUDY    48  38  68 NE8       30.11R
CUSTER         CLOUDY    37  26  64 N12G24    30.14R
ELLSWORTH AFB  CLOUDY    47  32  56 NE10      30.17R
PHILIP         CLOUDY    50  35  56 NE17      30.13R
PINE RIDGE     LGT RAIN  41  35  79 NE16G22   30.11R
WINNER         LGT RAIN  43  39  86 NE23G31   30.07R
$$

SDZ004>011-016>023-039-040-010300-
NORTHEAST SOUTH DAKOTA

CITY           SKY/WX    TMP DP  RH WIND       PRES   REMARKS
ABERDEEN       MOCLDY    53  31  42 NE9       30.13R
WATERTOWN      CLOUDY    50  35  56 NE13      30.09R
BROOKINGS      CLOUDY    46  40  79 E7        30.06R
SISSETON         N/A     52  33  48 E8        30.12R
$$

SDZ017-020-022-023-036>040-048>070-010300-
SOUTHEAST SOUTH DAKOTA

CITY           SKY/WX    TMP DP  RH WIND       PRES   REMARKS
SIOUX FALLS    CLOUDY    44  40  85 NE17      30.03R
HURON          CLOUDY    50  38  63 NE9       30.08R
CHAMBERLAIN    LGT RAIN  45  43  93 E13G18    30.09R
MITCHELL       LGT RAIN  45  43  93 NE8       30.08R
YANKTON        CLOUDY    43  39  87 NE21G29   29.98R
$$

ABBREVIATIONS USED IN REMARKS
   TC - TEMPERATURE IN CELSIUS
  WCI - WIND CHILL INDEX
   HX - HEAT INDEX
  VSB - VISIBILITY





USA.gov is the U.S. government's official web portal to all federal, state and local government web resources and services.